Regional Weather Roundup
Issued by NWS Albany, NY

Home | Current Version | Previous Version | Text Only | Print | Product List | Glossary On
Versions: 1 2 3 4 5 6 7 8 9 10 11 12 13 14 15 16 17 18 19 20 21 22 23 24 25 26 27 28 29 30 31 32 33 34 35 36 37 38 39 40 41 42 43 44 45 46 47 48 49 50
000
ASUS41 KALY 071910
RWRALY

NEW YORK STATE HOURLY WEATHER ROUNDUP
NATIONAL WEATHER SERVICE ALBANY NY
200 PM EST SUN FEB 07 2016

NOTE: "FAIR" INDICATES FEW OR NO CLOUDS BELOW 12,000 FEET WITH NO
SIGNIFICANT WEATHER AND/OR NO OBSTRUCTIONS TO VISIBILITY.

NYZ032-033-038>043-046>054-057>066-NYZ062>081-072000-
EAST


CITY           SKY/WX    TMP DP  RH WIND       PRES   REMARKS
ALBANY         MOSUNNY   45  19  35 NW10G18   30.09F
GLENS FALLS    SUNNY     42  22  44 SW7       30.10F
POUGHKEEPSIE   SUNNY     48  20  32 SE7       30.08F
NEWBURGH       SUNNY     45  19  36 VRB5      30.08F
MONTGOMERY     SUNNY     47  21  35 SE5       30.06F
WHITE PLAINS   CLOUDY    43  22  43 SE7       30.08F
ISLIP          CLOUDY    41  25  53 E5        30.09F
NEW YORK CITY  PTSUNNY   46  24  42 NE8       30.09F
CENTRAL PARK   MOSUNNY   47  21  35 NE7       30.10F
$$

NYZ005>009-017-018-044>046-055-056-072000-
CENTRAL


CITY           SKY/WX    TMP DP  RH WIND       PRES   REMARKS
FULTON         SUNNY     45  24  43 S8        30.04F
SYRACUSE       MOSUNNY   43  22  43 VRB6      30.03F
ROME           SUNNY     41  25  53 VRB3      30.08F
ELMIRA         SUNNY     45  25  45 S5        30.00F
BINGHAMTON     SUNNY     40  21  46 S7        29.97F
MONTICELLO     SUNNY     43  23  45 S7        30.04F
$$

NYZ026>034-041>043-072000-
NORTH


CITY           SKY/WX    TMP DP  RH WIND       PRES   REMARKS
WATERTOWN      CLOUDY    38  27  64 SE7       30.05F WCI  33
FORT DRUM      NOT AVBL
MASSENA        CLOUDY    27  18  69 NE17      30.13F WCI  14
SARANAC LAKE   CLOUDY    32  21  64 E6        30.01F WCI  26
PLATTSBURGH    CLOUDY    27  14  58 N8        30.17R WCI  19
$$

NYZ001>004-010>016-019>021-072000-
WEST


CITY           SKY/WX    TMP DP  RH WIND       PRES   REMARKS
NIAGARA FALLS  PTSUNNY   48  28  46 S12       29.94F
BUFFALO        MOSUNNY   46  27  47 SW9       29.95F
DUNKIRK        MOSUNNY   46  28  49 S13       29.94F
JAMESTOWN      CLOUDY    43  25  49 S15G21    29.93F
WELLSVILLE     SUNNY     43  24  47 S7        29.97F
ROCHESTER      MOSUNNY   45  27  49 SW7       29.99F
PENN YAN       SUNNY     43  23  45 SW7       30.01F
$$

             KEY
       WCI = WIND CHILL INDEX
       VSB = VISIBILITY
       HX  = HEAT INDEX
$$




USA.gov is the U.S. government's official web portal to all federal, state and local government web resources and services.